Terug naar catalogus

ONEWEB-0136

ActiefCommunicatiePO
NORAD 47282·PAYLOAD·🇬🇧 United Kingdom

Gelanceerd Dec 18, 2020 vanaf Vostochny Cosmodrome

Loading…

Volgende Passages (komende 24 uur)

TLE

VersSource: CelesTrak SupGP

Epoch: Sep 14, 2026, 13:33 UTC

1 47282C 20100AA  26257.56472222  .00001973  00000+0  54915-2 0  2570
2 47282  87.8983 332.9088 0001731  93.2040  16.4647 13.12437331    18

Volg ONEWEB-0136 in realtime met AllMySat

Download on the App Store